CW3467 Weather Reports


Display with metric or nautical units.
time (UTC)temp
F
wind
direction
speed
MPH
gust
MPH
rain 1hr
in
rain 24hr
in
rain mn
in
humidity
%
barometer
mb
20260906002504 74 219 0.0 1.0 0.00 0.00 0.00 51 1025.3
20260906002004 74 225 0.0 1.0 0.00 0.00 0.00 51 1025.3
20260906001504 74 225 0.0 1.0 0.00 0.00 0.00 51 1025.4
20260906001004 74 223 0.0 1.0 0.00 0.00 0.00 51 1025.4
20260906000504 75 0 0.0 0.0 0.00 0.00 0.00 51 1025.3
20260906000004 75 219 0.0 2.0 0.00 0.00 0.00 50 1025.4
20260905235504 75 219 1.0 2.0 0.00 0.00 0.00 50 1025.3
20260905235004 75 220 1.0 2.0 0.00 0.00 0.00 50 1025.3
20260905234504 75 220 0.0 2.0 0.00 0.00 0.00 50 1025.3
20260905234004 75 220 0.0 1.0 0.00 0.00 0.00 50 1025.3
20260905233504 75 216 0.0 1.0 0.00 0.00 0.00 50 1025.3
20260905233004 76 220 1.0 2.0 0.00 0.00 0.00 50 1025.5
20260905232504 76 219 1.0 2.0 0.00 0.00 0.00 49 1025.2
20260905232004 76 218 1.0 2.0 0.00 0.00 0.00 49 1025.3
20260905231504 76 220 1.0 1.0 0.00 0.00 0.00 50 1025.3
20260905231004 76 219 1.0 1.0 0.00 0.00 0.00 49 1025.5
20260905230504 76 218 0.0 2.0 0.00 0.00 0.00 50 1025.3
20260905230004 76 220 0.0 2.0 0.00 0.00 0.00 50 1025.5
20260905225504 76 219 0.0 1.0 0.00 0.00 0.00 49 1025.2
20260905225004 76 213 0.0 1.0 0.00 0.00 0.00 48 1025.1
20260905224504 77 220 0.0 1.0 0.00 0.00 0.00 49 1025.3
20260905224004 77 211 0.0 1.0 0.00 0.00 0.00 48 1025.3
20260905223525 78 175 0.0 2.0 0.00 0.00 0.00 47 1025.1
20260905223004 78 178 1.0 2.0 0.00 0.00 0.00 46 1025.3
20260905222504 78 192 0.0 1.0 0.00 0.00 0.00 46 1025.2
20260905222004 78 214 0.0 1.0 0.00 0.00 0.00 46 1025.2
20260905221504 79 217 0.0 2.0 0.00 0.00 0.00 46 1025.2
20260905221004 79 218 1.0 2.0 0.00 0.00 0.00 45 1025.0
20260905220504 79 219 1.0 2.0 0.00 0.00 0.00 45 1025.2
20260905220025 79 222 0.0 1.0 0.00 0.00 0.00 46 1025.2
20260905215504 79 227 0.0 2.0 0.00 0.00 0.00 45 1025.2
20260905215004 80 227 0.0 2.0 0.00 0.00 0.00 45 1025.0
20260905214504 80 225 0.0 1.0 0.00 0.00 0.00 44 1025.0
20260905214004 80 222 0.0 1.0 0.00 0.00 0.00 44 1025.1
20260905213504 80 210 0.0 1.0 0.00 0.00 0.00 44 1025.1
20260905213004 81 216 0.0 1.0 0.00 0.00 0.00 42 1025.0
20260905212504 81 221 0.0 1.0 0.00 0.00 0.00 41 1025.0
20260905212004 81 216 0.0 1.0 0.00 0.00 0.00 42 1024.9
20260905211504 82 217 0.0 1.0 0.00 0.00 0.00 42 1025.0
20260905211025 81 213 0.0 2.0 0.00 0.00 0.00 42 1024.9
20260905210504 82 215 0.0 2.0 0.00 0.00 0.00 43 1024.8
20260905210004 82 219 1.0 2.0 0.00 0.00 0.00 42 1024.9
20260905205504 82 217 1.0 2.0 0.00 0.00 0.00 42 1024.8
20260905205004 82 218 1.0 2.0 0.00 0.00 0.00 41 1024.9
20260905204504 82 223 1.0 2.0 0.00 0.00 0.00 42 1024.8
20260905204025 82 227 0.0 2.0 0.00 0.00 0.00 41 1024.7
20260905203504 83 223 0.0 2.0 0.00 0.00 0.00 40 1024.8
20260905203025 84 195 1.0 2.0 0.00 0.00 0.00 39 1024.9
20260905202504 84 194 1.0 2.0 0.00 0.00 0.00 39 1024.7
20260905202004 84 213 1.0 2.0 0.00 0.00 0.00 38 1024.8
20260905201503 84 217 1.0 2.0 0.00 0.00 0.00 38 1024.6
20260905201004 85 217 0.0 2.0 0.00 0.00 0.00 37 1024.5
20260905200504 85 193 1.0 2.0 0.00 0.00 0.00 36 1024.5
20260905200004 85 195 1.0 2.0 0.00 0.00 0.00 36 1024.4
20260905195504 85 213 1.0 2.0 0.00 0.00 0.00 37 1024.5
20260905195004 85 214 1.0 2.0 0.00 0.00 0.00 37 1024.4
20260905194504 85 213 0.0 1.0 0.00 0.00 0.00 37 1024.2
20260905194025 84 223 0.0 1.0 0.00 0.00 0.00 38 1024.1
20260905193524 84 223 0.0 1.0 0.00 0.00 0.00 38 1024.4
20260905193004 85 224 0.0 1.0 0.00 0.00 0.00 37 1024.0
20260905192504 85 218 0.0 1.0 0.00 0.00 0.00 36 1024.0
20260905192003 86 218 0.0 1.0 0.00 0.00 0.00 35 1023.7
20260905191504 86 215 0.0 1.0 0.00 0.00 0.00 35 1023.6
20260905191004 87 218 1.0 2.0 0.00 0.00 0.00 35 1023.4
20260905190504 87 224 1.0 2.0 0.00 0.00 0.00 34 1023.3
20260905190004 87 228 1.0 1.0 0.00 0.00 0.00 34 1023.3
20260905185504 87 227 1.0 2.0 0.00 0.00 0.00 33 1023.4
20260905185004 87 223 1.0 2.0 0.00 0.00 0.00 34 1023.4
20260905184503 87 222 1.0 1.0 0.00 0.00 0.00 34 1023.4
20260905184004 88 225 1.0 1.0 0.00 0.00 0.00 34 1023.2
20260905183504 88 225 1.0 1.0 0.00 0.00 0.00 33 1023.3
20260905183004 88 224 1.0 1.0 0.00 0.00 0.00 33 1023.1
20260905182525 88 222 0.0 1.0 0.00 0.00 0.00 34 1023.0
20260905182004 88 220 0.0 1.0 0.00 0.00 0.00 34 1023.0
20260905181504 89 219 1.0 2.0 0.00 0.00 0.00 34 1023.2
20260905181003 89 219 0.0 2.0 0.00 0.00 0.00 34 1023.1
20260905180504 89 221 0.0 1.0 0.00 0.00 0.00 33 1023.1
20260905180004 90 232 0.0 1.0 0.00 0.00 0.00 33 1023.2
20260905175504 91 235 1.0 2.0 0.00 0.00 0.00 32 1023.1
20260905175003 91 226 1.0 3.0 0.00 0.00 0.00 32 1023.1
20260905174504 92 222 1.0 3.0 0.00 0.00 0.00 33 1023.2
20260905174024 92 233 1.0 3.0 0.00 0.00 0.00 32 1023.1
20260905173503 92 236 1.0 4.0 0.00 0.00 0.00 32 1023.1
20260905173004 93 238 1.0 7.0 0.00 0.00 0.00 33 1022.9
20260905172504 94 246 1.0 7.0 0.00 0.00 0.00 33 1023.0
20260905172004 94 241 1.0 7.0 0.00 0.00 0.00 31 1023.1
20260905171503 94 236 2.0 7.0 0.00 0.00 0.00 31 1022.9
20260905171004 95 230 2.0 6.0 0.00 0.00 0.00 30 1023.0
20260905170525 95 230 2.0 10.0 0.00 0.00 0.00 29 1022.8
20260905170003 95 267 3.0 10.0 0.00 0.00 0.00 29 1022.9
20260905165525 96 278 3.0 9.0 0.00 0.00 0.00 29 1022.8
20260905165003 96 252 2.0 9.0 0.00 0.00 0.00 28 1022.7
20260905164503 97 142 2.0 6.0 0.00 0.00 0.00 28 1022.7
20260905164004 98 182 2.0 7.0 0.00 0.00 0.00 28 1022.7
20260905163503 97 259 1.0 7.0 0.00 0.00 0.00 28 1022.7
20260905163003 98 255 1.0 6.0 0.00 0.00 0.00 26 1022.5
20260905162525 98 277 2.0 9.0 0.00 0.00 0.00 27 1022.7
20260905162004 98 287 3.0 13.0 0.00 0.00 0.00 26 1022.5
20260905161503 99 265 2.0 13.0 0.00 0.00 0.00 26 1022.5
20260905161024 99 56 2.0 6.0 0.00 0.00 0.00 26 1022.7
20260905160503 99 295 2.0 10.0 0.00 0.00 0.00 25 1022.4
20260905160004 100 293 3.0 10.0 0.00 0.00 0.00 25 1022.3
20260905155503 99 300 3.0 10.0 0.00 0.00 0.00 26 1022.3
20260905155003 99 295 4.0 11.0 0.00 0.00 0.00 26 1022.4
20260905154503 99 298 4.0 11.0 0.00 0.00 0.00 25 1022.4
20260905154004 100 298 3.0 9.0 0.00 0.00 0.00 25 1022.3
20260905153503 100 301 3.0 9.0 0.00 0.00 0.00 25 1022.2
20260905153003 100 283 3.0 10.0 0.00 0.00 0.00 25 1022.3
20260905152504 100 280 2.0 10.0 0.00 0.00 0.00 25 1022.3
20260905152003 101 236 2.0 7.0 0.00 0.00 0.00 25 1022.3
20260905151503 101 249 1.0 4.0 0.00 0.00 0.00 24 1022.3
20260905151004 102 251 1.0 3.0 0.00 0.00 0.00 24 1022.7
20260905150504 101 205 1.0 6.0 0.00 0.00 0.00 24 1022.4
20260905150025 101 124 1.0 10.0 0.00 0.00 0.00 24 1022.7
20260905145504 100 70 2.0 10.0 0.00 0.00 0.00 24 1022.5
20260905145004 100 65 2.0 6.0 0.00 0.00 0.00 25 1022.8
20260905144503 100 71 2.0 6.0 0.00 0.00 0.00 26 1022.7
20260905144003 101 260 2.0 6.0 0.00 0.00 0.00 25 1022.7
20260905143525 101 284 2.0 6.0 0.00 0.00 0.00 24 1022.5
20260905143004 102 276 2.0 6.0 0.00 0.00 0.00 23 1022.7
20260905142504 103 232 1.0 4.0 0.00 0.00 0.00 23 1022.9
20260905142004 101 231 1.0 6.0 0.00 0.00 0.00 23 1023.0
20260905141503 101 244 1.0 6.0 0.00 0.00 0.00 23 1023.1
20260905141004 102 286 2.0 7.0 0.00 0.00 0.00 23 1023.2
20260905140525 102 288 2.0 7.0 0.00 0.00 0.00 24 1023.3
20260905140025 101 272 2.0 8.0 0.00 0.00 0.00 24 1023.1
20260905135524 100 263 2.0 8.0 0.00 0.00 0.00 25 1023.3
20260905135004 101 226 1.0 4.0 0.00 0.00 0.00 24 1023.4
20260905134504 101 89 1.0 4.0 0.00 0.00 0.00 24 1023.3
20260905134004 101 195 1.0 4.0 0.00 0.00 0.00 25 1023.6
20260905133524 101 205 1.0 4.0 0.00 0.00 0.00 24 1023.6
20260905133003 100 315 2.0 8.0 0.00 0.00 0.00 25 1023.7
20260905132503 99 312 2.0 8.0 0.00 0.00 0.00 25 1023.5
20260905132003 100 253 1.0 4.0 0.00 0.00 0.00 25 1023.6
20260905131503 100 267 1.0 4.0 0.00 0.00 0.00 26 1023.5
20260905131025 100 34 1.0 4.0 0.00 0.00 0.00 25 1023.8
20260905130504 100 244 1.0 6.0 0.00 0.00 0.00 25 1023.6
20260905130003 100 252 1.0 9.0 0.00 0.00 0.00 25 1023.8
20260905125503 100 261 1.0 9.0 0.00 0.00 0.00 25 1023.8
20260905125003 100 290 2.0 6.0 0.00 0.00 0.00 24 1023.9
20260905124525 100 285 2.0 7.0 0.00 0.00 0.00 23 1023.9
20260905124003 100 274 1.0 7.0 0.00 0.00 0.00 26 1023.9
20260905123503 99 259 1.0 6.0 0.00 0.00 0.00 26 1024.1
20260905123004 99 356 1.0 6.0 0.00 0.00 0.00 26 1024.0
20260905122504 97 68 2.0 6.0 0.00 0.00 0.00 27 1024.0
20260905122003 98 235 2.0 6.0 0.00 0.00 0.00 27 1024.1
20260905121504 99 248 1.0 4.0 0.00 0.00 0.00 27 1024.4
20260905121004 97 259 1.0 6.0 0.00 0.00 0.00 28 1024.2
20260905120503 97 267 2.0 6.0 0.00 0.00 0.00 28 1024.2
20260905120003 97 271 2.0 6.0 0.00 0.00 0.00 27 1024.4
20260905115503 96 258 2.0 6.0 0.00 0.00 0.00 28 1024.5
20260905115004 97 236 1.0 2.0 0.00 0.00 0.00 27 1024.6
20260905114525 96 232 1.0 2.0 0.00 0.00 0.00 31 1024.5
20260905114003 95 308 1.0 6.0 0.00 0.00 0.00 32 1024.6
20260905113504 94 301 2.0 6.0 0.00 0.00 0.00 33 1024.8
20260905113003 94 276 2.0 4.0 0.00 0.00 0.00 32 1024.8
20260905112503 94 260 1.0 3.0 0.00 0.00 0.00 32 1024.9
20260905112003 93 262 1.0 3.0 0.00 0.00 0.00 33 1024.8
20260905111503 93 262 1.0 3.0 0.00 0.00 0.00 32 1025.0
20260905111003 92 247 0.0 2.0 0.00 0.00 0.00 33 1025.1
20260905110503 90 252 1.0 3.0 0.00 0.00 0.00 34 1025.2
20260905110004 90 270 1.0 3.0 0.00 0.00 0.00 34 1025.1
20260905105503 90 246 1.0 3.0 0.00 0.00 0.00 34 1025.3
20260905105003 90 221 1.0 2.0 0.00 0.00 0.00 35 1025.3
20260905104503 89 218 1.0 2.0 0.00 0.00 0.00 34 1025.3
20260905104003 90 255 1.0 3.0 0.00 0.00 0.00 35 1025.3
20260905103503 88 249 1.0 3.0 0.00 0.00 0.00 35 1025.5
20260905103003 89 255 1.0 3.0 0.00 0.00 0.00 34 1025.5
20260905102524 88 255 1.0 3.0 0.00 0.00 0.00 35 1025.3
20260905102003 86 254 1.0 3.0 0.00 0.00 0.00 34 1025.4
20260905101503 87 259 1.0 4.0 0.00 0.00 0.00 35 1025.6
20260905101003 86 246 1.0 4.0 0.00 0.00 0.00 34 1025.6
20260905100503 86 241 1.0 2.0 0.00 0.00 0.00 36 1025.5
20260905100003 85 259 1.0 3.0 0.00 0.00 0.00 36 1025.5
20260905095503 85 254 1.0 4.0 0.00 0.00 0.00 37 1025.3
20260905095003 86 257 1.0 4.0 0.00 0.00 0.00 37 1025.4
20260905094503 85 273 2.0 4.0 0.00 0.00 0.00 37 1025.4
20260905094024 85 272 2.0 4.0 0.00 0.00 0.00 36 1025.5
20260905093503 85 261 1.0 3.0 0.00 0.00 0.00 37 1025.6
20260905093003 85 257 1.0 3.0 0.00 0.00 0.00 37 1025.4
20260905092503 83 253 1.0 3.0 0.00 0.00 0.00 36 1025.5
20260905092024 84 244 1.0 3.0 0.00 0.00 0.00 38 1025.6
20260905091503 83 250 1.0 3.0 0.00 0.00 0.00 37 1025.6
20260905091003 82 254 2.0 3.0 0.00 0.00 0.00 39 1025.7
20260905090503 81 254 2.0 3.0 0.00 0.00 0.00 39 1025.6
20260905090004 80 256 2.0 3.0 0.00 0.00 0.00 40 1025.6
20260905085503 80 255 1.0 3.0 0.00 0.00 0.00 40 1025.5
20260905085003 79 261 1.0 3.0 0.00 0.00 0.00 42 1025.5
20260905084503 79 256 1.0 3.0 0.00 0.00 0.00 42 1025.6
20260905084024 79 244 1.0 2.0 0.00 0.00 0.00 42 1025.5
20260905083503 78 245 1.0 3.0 0.00 0.00 0.00 42 1025.3
20260905083024 78 247 1.0 3.0 0.00 0.00 0.00 44 1025.5
20260905082503 77 243 1.0 2.0 0.00 0.00 0.00 45 1025.7
20260905082024 77 239 1.0 2.0 0.00 0.00 0.00 43 1025.5
20260905081503 77 240 0.0 2.0 0.00 0.00 0.00 44 1025.5
20260905081003 76 234 1.0 2.0 0.00 0.00 0.00 44 1025.6
20260905080503 76 224 0.0 2.0 0.00 0.00 0.00 45 1025.7
20260905080004 77 248 1.0 2.0 0.00 0.00 0.00 44 1025.6
20260905075503 75 245 1.0 2.0 0.00 0.00 0.00 45 1025.4
20260905075003 75 241 1.0 2.0 0.00 0.00 0.00 47 1025.5
20260905074503 74 238 1.0 2.0 0.00 0.00 0.00 46 1025.6
20260905074003 74 237 1.0 2.0 0.00 0.00 0.00 48 1025.6
20260905073503 73 236 1.0 2.0 0.00 0.00 0.00 47 1025.6
20260905073003 73 233 0.0 1.0 0.00 0.00 0.00 47 1025.5
20260905072524 73 234 0.0 1.0 0.00 0.00 0.00 48 1025.6
20260905072003 72 227 0.0 1.0 0.00 0.00 0.00 50 1025.6
20260905071503 72 231 0.0 1.0 0.00 0.00 0.00 50 1025.7
20260905071003 71 235 0.0 1.0 0.00 0.00 0.00 50 1025.7
20260905070524 71 0 0.0 0.0 0.00 0.00 0.00 50 1025.8
20260905070024 71 228 0.0 1.0 0.00 0.00 0.00 49 1025.6
20260905065503 71 226 0.0 1.0 0.00 0.00 0.00 51 1025.6
20260905065003 71 227 0.0 1.0 0.00 0.00 0.00 49 1025.5
20260905064503 71 233 0.0 1.0 0.00 0.00 0.00 49 1025.5
20260905064003 71 216 0.0 1.0 0.00 0.00 0.00 51 1025.5
20260905063524 71 218 0.0 1.0 0.00 0.00 0.00 51 1025.4
20260905063003 70 222 0.0 1.0 0.00 0.00 0.00 48 1025.5
20260905062503 70 223 0.0 1.0 0.00 0.00 0.00 49 1025.5
20260905062003 69 226 0.0 1.0 0.00 0.00 0.00 51 1025.4
20260905061503 69 0 0.0 0.0 0.00 0.00 0.00 50 1025.5
20260905061003 69 225 0.0 1.0 0.00 0.00 0.00 50 1025.2
20260905060503 69 223 0.0 1.0 0.00 0.00 0.00 50 1025.1
20260905060024 69 220 0.0 2.0 0.00 0.00 0.00 50 1025.2
20260905055503 69 220 0.0 2.0 0.00 0.00 0.00 49 1025.0
20260905055003 69 220 0.0 1.0 0.00 0.00 0.00 49 1025.2
20260905054524 69 220 0.0 1.0 0.00 0.00 0.00 49 1025.1
20260905054003 69 207 0.0 1.0 0.00 0.00 0.00 49 1025.1
20260905053503 69 211 0.0 1.0 0.00 0.00 0.00 48 1024.9
20260905053003 69 220 0.0 2.0 0.00 0.00 0.00 49 1024.9
20260905052503 69 222 0.0 2.0 0.00 0.00 0.00 49 1025.0
20260905052003 69 230 0.0 1.0 0.00 0.00 0.00 49 1024.9
20260905051503 69 230 0.0 1.0 0.00 0.00 0.00 49 1025.0
20260905051024 69 0 0.0 0.0 0.00 0.00 0.00 48 1024.6
20260905050524 69 220 0.0 1.0 0.00 0.00 0.00 48 1024.8
20260905050003 69 221 0.0 1.0 0.00 0.00 0.00 49 1024.7
20260905045503 69 222 0.0 1.0 0.00 0.00 0.00 48 1024.8
20260905045003 69 224 0.0 1.0 0.00 0.00 0.00 49 1025.0
20260905044503 69 225 0.0 1.0 0.00 0.00 0.00 48 1024.8
20260905044024 70 223 0.0 1.0 0.00 0.00 0.00 48 1024.8
20260905043503 70 223 0.0 1.0 0.00 0.00 0.00 47 1024.7
20260905043003 70 226 0.0 1.0 0.00 0.00 0.00 47 1024.6
20260905042503 70 225 0.0 1.0 0.00 0.00 0.00 47 1024.6
20260905042024 70 220 0.0 1.0 0.00 0.00 0.00 47 1024.6
20260905041503 70 218 0.0 1.0 0.00 0.00 0.00 47 1024.6
20260905041003 69 219 0.0 1.0 0.00 0.00 0.00 47 1024.6
20260905040503 69 220 0.0 1.0 0.00 0.00 0.00 48 1024.6
20260905040003 70 220 0.0 1.0 0.00 0.00 0.00 48 1024.5
20260905035503 70 220 0.0 1.0 0.00 0.00 0.00 47 1024.5
20260905035003 70 222 0.0 2.0 0.00 0.00 0.00 47 1024.5
20260905034503 70 221 1.0 2.0 0.00 0.00 0.00 46 1024.5
20260905034003 71 219 0.0 2.0 0.00 0.00 0.00 46 1024.2
20260905033503 70 221 0.0 1.0 0.00 0.00 0.00 46 1024.6
20260905033024 70 228 0.0 1.0 0.00 0.00 0.00 46 1024.6
20260905032503 71 230 0.0 1.0 0.00 0.00 0.00 45 1024.6
20260905032024 71 224 0.0 1.0 0.00 0.00 0.00 45 1024.5
20260905031503 71 217 0.0 1.0 0.00 0.00 0.00 45 1024.2
20260905031003 71 220 0.0 1.0 0.00 0.00 0.00 44 1024.2
20260905030503 71 221 1.0 2.0 0.00 0.00 0.00 45 1024.4
20260905030024 71 222 0.0 2.0 0.00 0.00 0.00 46 1024.1
20260905025524 71 220 0.0 1.0 0.00 0.00 0.00 46 1024.2
20260905025003 71 219 0.0 1.0 0.00 0.00 0.00 45 1024.5
20260905024503 71 0 0.0 0.0 0.00 0.00 0.00 45 1024.1
20260905024003 71 218 0.0 2.0 0.00 0.00 0.00 44 1024.1
20260905023503 72 220 1.0 2.0 0.00 0.00 0.00 43 1024.0
20260905023003 72 220 1.0 2.0 0.00 0.00 0.00 43 1024.2
20260905022503 72 220 1.0 2.0 0.00 0.00 0.00 44 1024.1
20260905022003 72 221 1.0 2.0 0.00 0.00 0.00 43 1024.1
20260905021503 72 220 0.0 1.0 0.00 0.00 0.00 44 1024.2
20260905021003 72 223 1.0 2.0 0.00 0.00 0.00 44 1023.9
20260905020503 72 224 0.0 2.0 0.00 0.00 0.00 44 1024.1
20260905020003 72 223 0.0 1.0 0.00 0.00 0.00 44 1024.0
20260905015503 72 233 0.0 1.0 0.00 0.00 0.00 43 1024.2
20260905015024 73 220 0.0 2.0 0.00 0.00 0.00 42 1024.4
20260905014524 74 220 1.0 2.0 0.00 0.00 0.00 42 1024.1
20260905014003 73 218 1.0 3.0 0.00 0.00 0.00 41 1024.0
20260905013503 73 217 1.0 3.0 0.00 0.00 0.00 42 1023.9
20260905013024 73 219 0.0 1.0 0.00 0.00 0.00 41 1024.2
20260905012503 74 218 1.0 1.0 0.00 0.00 0.00 41 1024.0
20260905012024 74 217 0.0 1.0 0.00 0.00 0.00 41 1024.1
20260905011524 73 217 0.0 1.0 0.00 0.00 0.00 41 1024.0
20260905011003 73 223 0.0 1.0 0.00 0.00 0.00 42 1024.1
20260905010503 73 221 0.0 1.0 0.00 0.00 0.00 42 1024.4
20260905010004 74 218 0.0 1.0 0.00 0.00 0.00 41 1024.1
20260905005504 74 215 0.0 1.0 0.00 0.00 0.00 41 1024.1
20260905005004 74 215 0.0 1.0 0.00 0.00 0.00 40 1024.4
20260905004525 74 215 0.0 1.0 0.00 0.00 0.00 40 1024.2
20260905004004 74 223 0.0 1.0 0.00 0.00 0.00 40 1024.2
20260905003504 74 218 0.0 1.0 0.00 0.00 0.00 40 1024.4
20260905003004 75 214 0.0 1.0 0.00 0.00 0.00 39 1024.4